Greenville Downtown, SC

5:29 PM EDT on May 23, 2017 (GMT -0400)
Greenville Downtown

Weather History for KGMU - January, 2013

Change the Weather History Date:

Monday, January 7, 2013

  Actual Average Record
Temperature  
Mean Temperature 44 °F -  
Max Temperature 53 °F 51 °F 69 °F (2012)
Min Temperature 36 °F 34 °F 7 °F (2014)
Degree Days  
Heating Degree Days 20    
Moisture  
Dew Point 26 °F    
Average Humidity 52    
Maximum Humidity 70    
Minimum Humidity 32    
Precipitation  
Precipitation 0.00 in - - ()
Sea Level Pressure  
Sea Level Pressure 30.35 in    
Wind  
Wind Speed 4 mph (NE)    
Max Wind Speed 12 mph    
Max Gust Speed -    
Visibility 10 miles    
Events      
Averages and records for this station are not official NWS values.
T = Trace of Precipitation, MM = Missing Value Source: NWS Daily Summary

Daily Weather History Graph

Daily Weather History Graph

Search for Another Location

Airport or City:

Trip Planner

Search our weather history database for the weather conditions in past years. The results will help you decide how hot, cold, wet, or windy it might be!

Date:

Astronomy

Jan. 07, 2013 Rise Set
Actual Time 7:37 AM EST 5:34 PM EST
Civil Twilight 7:09 AM EST 6:02 PM EST
Nautical Twilight 6:38 AM EST 6:33 PM EST
Astronomical Twilight 6:07 AM EST 7:04 PM EST
Moon 3:02 AM EST (1/7) 1:42 PM EST (1/7)
Length of Visible Light 10h 52m
Length of Day
9h 56m
Waning Crescent, 23% of the Moon is Illuminated
Jan 7
Waning Crescent
Jan 11
New
Jan 18
First Quarter
Jan 26
Full
Feb 3
Last Quarter

Hourly Weather History & Observations

Time (EST) Temp. Windchill Dew Point Humidity Pressure Visibility Wind Dir Wind Speed Gust Speed Precip Events Conditions
12:53 AM 41.0 °F - 27.0 °F 57% 30.23 in 10.0 mi Calm Calm - N/A   Clear
1:53 AM 39.9 °F - 27.0 °F 60% 30.22 in 10.0 mi Calm Calm - N/A   Clear
2:53 AM 37.9 °F 30.5 °F 28.9 °F 70% 30.24 in 10.0 mi NNE 11.5 mph - N/A   Clear
3:53 AM 41.0 °F 34.7 °F 28.0 °F 60% 30.27 in 10.0 mi North 10.4 mph - N/A   Clear
4:53 AM 39.9 °F 36.7 °F 27.0 °F 60% 30.28 in 10.0 mi North 4.6 mph - N/A   Clear
5:53 AM 37.0 °F 31.6 °F 26.1 °F 65% 30.30 in 10.0 mi North 6.9 mph - N/A   Clear
6:53 AM 37.0 °F 31.6 °F 26.1 °F 65% 30.32 in 10.0 mi North 6.9 mph - N/A   Clear
7:53 AM 36.0 °F 29.0 °F 26.1 °F 67% 30.34 in 10.0 mi North 9.2 mph - N/A   Clear
8:53 AM 39.9 °F 34.5 °F 26.1 °F 58% 30.38 in 10.0 mi North 8.1 mph - N/A   Clear
9:53 AM 45.0 °F 42.6 °F 26.1 °F 48% 30.40 in 10.0 mi NNE 4.6 mph - N/A   Clear
10:53 AM 46.9 °F - 25.0 °F 42% 30.42 in 10.0 mi ENE 6.9 mph - N/A   Clear
11:53 AM 48.9 °F - 26.1 °F 41% 30.41 in 10.0 mi ESE 5.8 mph - N/A   Clear
12:53 PM 51.1 °F - 27.0 °F 39% 30.37 in 10.0 mi ENE 3.5 mph - N/A   Clear
2:53 PM 53.1 °F - 24.1 °F 32% 30.35 in 10.0 mi Calm Calm - N/A   Clear
3:53 PM 52.0 °F - 24.1 °F 34% 30.36 in 10.0 mi SE 4.6 mph - N/A   Clear
4:53 PM 51.1 °F - 24.1 °F 35% 30.38 in 10.0 mi East 3.5 mph - N/A   Clear
5:53 PM 48.0 °F - 25.0 °F 41% 30.38 in 10.0 mi ENE 3.5 mph - N/A   Clear
6:53 PM 46.9 °F - 27.0 °F 46% 30.40 in 10.0 mi Calm Calm - N/A   Clear
7:53 PM 45.0 °F - 27.0 °F 49% 30.40 in 10.0 mi Calm Calm - N/A   Clear
8:53 PM 44.1 °F 42.5 °F 27.0 °F 51% 30.40 in 10.0 mi East 3.5 mph - N/A   Clear
9:53 PM 42.1 °F - 27.0 °F 55% 30.41 in 10.0 mi Calm Calm - N/A   Clear
10:53 PM 42.1 °F 38.4 °F 28.0 °F 58% 30.40 in 10.0 mi ENE 5.8 mph - N/A   Clear
11:53 PM 37.9 °F - 28.0 °F 68% 30.41 in 10.0 mi Calm Calm - N/A   Clear